Preview of NWS' New Version of Forecast
This preview is not operational and should not be used for support decisions.

Regional Weather Roundup (RWR)

Issued by National Weather Service (NWS)

                            
000
ASUS43 KTOP 240908
RWRKS 

WEATHER ROUNDUP FOR KANSAS
NATIONAL WEATHER SERVICE GOODLAND KS
400 AM CDT MON JUN 24 2019

NOTE:  "FAIR" INDICATES FEW OR NO CLOUDS BELOW 12,000 FEET WITH NO
SIGNIFICANT WEATHER AND/OR OBSTRUCTIONS TO VISIBILITY.

KSZ001>006-013>018-027>032-041>047-241000-
NORTHWEST KANSAS
  
CITY           SKY/WX    TMP DP  RH WIND       PRES   REMARKS
GOODLAND       CLEAR     47  46  97 W7        29.95F                  
HAYS           CLEAR     52  51  97 W8        29.90S                  
HILL CITY      CLEAR     51  48  89 W8        29.91F                  
RUSSELL        CLEAR     55  50  83 NW9       29.87S                  
$$

KSZ061>065-074>080-084>089-241000-
SOUTHWEST KANSAS
  
CITY           SKY/WX    TMP DP  RH WIND       PRES   REMARKS
DODGE CITY     CLEAR     54  49  83 W8        29.95R                  
ELKHART        CLEAR     56  52  88 W8        30.03S                  
GARDEN CITY    CLEAR     48  46  93 W8        29.97R                  
GREAT BEND     CLEAR     56  54  93 NW7       29.89S                  
LIBERAL        CLEAR     52  49  89 W8        30.01R                  
PRATT          CLEAR     57  56  95 NW8       29.89S                  
$$

KSZ066>073-081>083-090>101-241000-
SOUTHEAST KANSAS
  
CITY           SKY/WX    TMP DP  RH WIND       PRES   REMARKS
CHANUTE        CLOUDY    69  66  90 W8        29.77F                  
COFFEYVILLE    CLEAR     66  64  93 S6        29.75F                  
HUTCHINSON     CLEAR     57  54  89 MISG      29.86S                  
MEDICINE LODGE   N/A     57  56  96 NW6       29.88R                  
NEWTON         MOCLDY    59  55  87 NW12      29.86R                  
PARSONS        CLEAR     66  65  96 CALM      29.78S FOG              
WICHITA INTL   MOCLDY    64  59  83 NW14      29.83S                  
WICHITA JABRA  MOCLDY    63  60  90 NW12      29.83R                  
WICHITA MCCONL MOCLDY    65  60  82 W10       29.83S                  
WINFIELD       PTCLDY    66  63  90 N9        29.83R                  
$$

KSZ007>012-019>026-033>040-048>060-102>105-241000-
NORTHEAST KANSAS
  
CITY           SKY/WX    TMP DP  RH WIND       PRES   REMARKS
CONCORDIA      CLEAR     57  53  86 W7        29.83F                  
EMPORIA        PTCLDY    62  61  96 NW9       29.79S                  
LAWRENCE       MOCLDY    65  60  84 NW10G20   29.77R                  
MANHATTAN      CLEAR     58  55  90 CALM      29.81F                  
MARYSVILLE     MOCLDY    61  55  82 NW7       29.80S                  
OLATHE IND     MOCLDY    65  62  90 W10       29.77S                  
OLATHE EXE     MOCLDY    66  65  96 W6        29.76S                  
SALINA         CLEAR     57  54  89 W7        29.85S                  
TOPEKA BILLARD PTCLDY    63  58  83 W12       29.77S                  
TOPEKA FORBES  CLOUDY    63  59  87 NW12      29.78R                  
$$